Home > Weather > Perth > Past weeks

Flag for Australia Past Weather in Perth, Western Australia, Australia — Yesterday and Last 2 Weeks

Now
48 °F

Clear.


Feels Like: 48 °F
Forecast: 51 / 69 °F
Wind: 2 mph from South

Location: Belmont Perth Airport

Current Time: May 31, 2016 at 10:12:54 PM

Latest Report: May 31, 2016 at 9:30 PM


Visibility: 10 mi

Pressure: 30.18 "Hg

Humidity: 87%

Dew Point: 45 °F

Location of PerthLocation

Past Weather in Perth — Graph

°F

Perth Temperature Yesterday

Maximum temperature yesterday: 68 °F (at 2:00 PM)
Minimum temperature yesterday: 50 °F (at 6:00 AM)
Average temperature yesterday: 56 °F

High & Low Weather Summary for the Past Weeks

 TemperatureHumidityPressure
High72 °F (May 18, 1:30 PM)100% (May 17, 1:30 AM)30.21 "Hg (May 17, 1:30 AM)
Low46 °F (May 17, 1:30 AM)35% (May 31, 2:00 PM)29.42 "Hg (May 21, 5:30 AM)
Average58 °F77%30.00 "Hg
* Reported May 16 9:00 PM — May 31 9:00 PM, Perth, Weather by CustomWeather, © 2016

Note: Actual official high and low records may vary slightly from our data, if they occured in-between our weather recording intervals... More about our weather records

Advertising

Perth Weather History for the Previous 24 Hours

Scroll right to see more
 ConditionsComfort  
Time TempWeatherWind HumidityBarometerVisibility
9:00 PM
Tue, May 31
50 °FClear.6 mph88%30.18 "Hg10 mi
8:30 PM52 °FClear.7 mph82%30.15 "Hg10 mi
8:00 PM52 °FClear.6 mph88%30.15 "Hg10 mi
7:30 PM55 °FClear.8 mph72%30.15 "Hg10 mi
7:00 PM59 °FClear.9 mph63%30.12 "Hg10 mi
6:30 PM59 °FClear.8 mph63%30.12 "Hg10 mi
6:00 PM61 °FClear.8 mph59%30.12 "Hg10 mi
5:30 PM63 °FClear.8 mph56%30.12 "Hg10 mi
5:00 PM64 °FClear.8 mph49%30.09 "Hg10 mi
4:00 PM68 °FSunny.9 mph40%30.09 "Hg10 mi
3:30 PM68 °FSunny.10 mph40%30.07 "Hg10 mi
3:00 PM68 °FSunny.9 mph38%30.09 "Hg10 mi
2:30 PM70 °FSunny.8 mph35%30.07 "Hg10 mi
2:00 PM68 °FSunny.6 mph35%30.07 "Hg10 mi
1:00 PM68 °FSunny.6 mph38%30.09 "Hg10 mi
12:00 PM66 °FSunny.7 mph40%30.12 "Hg10 mi
11:30 AM64 °FSunny.8 mph46%30.12 "Hg10 mi
11:00 AM64 °FSunny.6 mph46%30.12 "Hg10 mi
10:30 AM61 °FSunny.9 mph52%30.15 "Hg10 mi
10:00 AM59 °FSunny.9 mph55%30.15 "Hg10 mi
9:00 AM55 °FSunny.8 mph59%30.15 "Hg10 mi
8:30 AM52 °FSunny.7 mph67%30.15 "Hg10 mi
8:00 AM50 °FSunny.6 mph71%30.12 "Hg10 mi
7:30 AM48 °FSunny.6 mph76%30.12 "Hg10 mi
7:00 AM46 °FSunny.7 mph76%30.12 "Hg10 mi
6:30 AM46 °FSunny.8 mph76%30.12 "Hg10 mi
6:00 AM46 °FClear.7 mph82%30.12 "Hg10 mi
5:30 AM46 °FClear.7 mph82%30.12 "Hg10 mi
5:00 AM48 °FClear.8 mph76%30.09 "Hg10 mi
4:30 AM48 °FClear.6 mph76%30.12 "Hg10 mi
4:00 AM48 °FClear.8 mph76%30.09 "Hg10 mi
3:30 AM48 °FClear.8 mph76%30.09 "Hg10 mi
3:00 AM48 °FClear.8 mph76%30.09 "Hg10 mi
2:30 AM48 °FClear.7 mph76%30.09 "Hg10 mi
2:00 AM50 °FClear.9 mph71%30.09 "Hg10 mi
1:30 AM50 °FClear.10 mph71%30.09 "Hg10 mi
1:00 AM50 °FClear.10 mph71%30.09 "Hg10 mi
12:00 AM52 °FClear.8 mph72%30.09 "Hg10 mi
11:30 PM
Mon, May 30
52 °FClear.9 mph72%30.09 "Hg10 mi
11:00 PM52 °FClear.8 mph72%30.09 "Hg10 mi
10:30 PM52 °FClear.8 mph72%30.09 "Hg10 mi
10:00 PM52 °FClear.9 mph72%30.09 "Hg10 mi
Weather by CustomWeather, © 2016

See weather overviewHow to use our weather pages